| time (UTC) | temp F | wind direction | speed knots | gust knots | rain 1hr in | rain 24hr in | rain mn in | humidity % | barometer mb |
| 20260507174245 | 63 | 52 | 2.6 | 9.6 | 0.00 | 0.00 | 0.00 | 78 | 1015.9 |
| 20260507173227 | 62 | 45 | 2.6 | 13.0 | 0.00 | 0.00 | 0.00 | 79 | 1015.6 |
| 20260507172221 | 62 | 86 | 3.5 | 13.0 | 0.00 | 0.00 | 0.00 | 79 | 1015.7 |
| 20260507171218 | 61 | 69 | 2.6 | 11.3 | 0.00 | 0.00 | 0.00 | 82 | 1016.0 |
| 20260507170153 | 61 | 87 | 2.6 | 10.4 | 0.00 | 0.00 | 0.00 | 84 | 1016.1 |
| 20260507165206 | 61 | 55 | 3.5 | 9.6 | 0.00 | 0.00 | 0.00 | 84 | 1016.2 |
| 20260507161837 | 59 | 338 | 5.2 | 13.9 | 0.00 | 0.00 | 0.00 | 86 | 1016.3 |
| 20260507160849 | 59 | 13 | 4.3 | 13.9 | 0.00 | 0.00 | 0.00 | 87 | 1016.3 |
| 20260507155840 | 59 | 11 | 4.3 | 10.4 | 0.00 | 0.00 | 0.00 | 87 | 1016.9 |
| 20260507154830 | 59 | 0 | 2.6 | 7.8 | 0.00 | 0.00 | 0.00 | 87 | 1016.5 |
| 20260507153839 | 59 | 349 | 3.5 | 8.7 | 0.00 | 0.00 | 0.00 | 87 | 1016.6 |
| 20260507152809 | 59 | 18 | 2.6 | 11.3 | 0.00 | 0.00 | 0.00 | 88 | 1016.6 |
| 20260507145536 | 59 | 5 | 3.5 | 11.3 | 0.00 | 0.00 | 0.00 | 88 | 1016.3 |
| 20260507144533 | 58 | 332 | 3.5 | 11.3 | 0.00 | 0.00 | 0.00 | 88 | 1016.6 |
| 20260507143536 | 58 | 307 | 3.5 | 9.6 | 0.00 | 0.00 | 0.00 | 89 | 1016.6 |
| 20260507142553 | 58 | 36 | 2.6 | 8.7 | 0.00 | 0.00 | 0.00 | 89 | 1016.8 |
| 20260507141558 | 58 | 344 | 2.6 | 13.9 | 0.00 | 0.00 | 0.00 | 89 | 1017.1 |
| 20260507140623 | 58 | 31 | 4.3 | 13.9 | 0.00 | 0.00 | 0.00 | 89 | 1016.7 |
| 20260507135608 | 58 | 319 | 3.5 | 9.6 | 0.00 | 0.00 | 0.00 | 89 | 1016.3 |
| 20260507134624 | 58 | 355 | 2.6 | 7.8 | 0.00 | 0.00 | 0.00 | 90 | 1016.5 |
| 20260507133605 | 58 | 12 | 3.5 | 10.4 | 0.00 | 0.00 | 0.00 | 90 | 1016.3 |
| 20260507132618 | 58 | 11 | 4.3 | 10.4 | 0.00 | 0.00 | 0.00 | 90 | 1016.1 |
| 20260507131552 | 58 | 76 | 3.5 | 13.0 | 0.00 | 0.00 | 0.00 | 89 | 1015.6 |
| 20260507125442 | 58 | 342 | 2.6 | 12.2 | 0.00 | 0.00 | 0.00 | 89 | 1015.7 |
| 20260507124448 | 58 | 20 | 3.5 | 12.2 | 0.00 | 0.00 | 0.00 | 88 | 1015.9 |
| 20260507123457 | 58 | 0 | 2.6 | 12.2 | 0.00 | 0.00 | 0.00 | 89 | 1015.5 |
| 20260507122431 | 58 | 49 | 4.3 | 12.2 | 0.00 | 0.00 | 0.00 | 89 | 1015.3 |
| 20260507121406 | 58 | 5 | 3.5 | 10.4 | 0.00 | 0.00 | 0.00 | 89 | 1015.4 |
| 20260507120428 | 58 | 355 | 4.3 | 10.4 | 0.00 | 0.00 | 0.00 | 88 | 1015.1 |
| 20260507115428 | 58 | 19 | 3.5 | 13.9 | 0.00 | 0.00 | 0.00 | 88 | 1014.7 |
| 20260507111003 | 59 | 9 | 3.5 | 12.2 | 0.00 | 0.00 | 0.00 | 88 | 1014.5 |
| 20260507104842 | 59 | 35 | 5.2 | 11.3 | 0.00 | 0.00 | 0.00 | 87 | 1014.3 |
| 20260507103857 | 59 | 328 | 5.2 | 11.3 | 0.00 | 0.00 | 0.00 | 87 | 1014.2 |
| 20260507102853 | 59 | 346 | 2.6 | 9.6 | 0.00 | 0.00 | 0.00 | 87 | 1014.2 |
| 20260507101847 | 60 | 13 | 3.5 | 10.4 | 0.00 | 0.00 | 0.00 | 87 | 1014.3 |
| 20260507100827 | 60 | 5 | 3.5 | 10.4 | 0.00 | 0.00 | 0.00 | 86 | 1013.8 |
| 20260507095836 | 60 | 350 | 3.5 | 10.4 | 0.00 | 0.00 | 0.00 | 86 | 1013.9 |
| 20260507094811 | 60 | 5 | 2.6 | 8.7 | 0.00 | 0.00 | 0.00 | 86 | 1013.8 |
| 20260507093827 | 60 | 17 | 2.6 | 7.0 | 0.00 | 0.00 | 0.00 | 86 | 1013.7 |
| 20260507092820 | 60 | 10 | 1.7 | 10.4 | 0.00 | 0.00 | 0.00 | 86 | 1013.7 |
| 20260507091819 | 60 | 5 | 3.5 | 10.4 | 0.00 | 0.00 | 0.00 | 86 | 1013.7 |
| 20260507090803 | 60 | 5 | 0.9 | 6.1 | 0.00 | 0.00 | 0.00 | 86 | 1013.7 |
| 20260507085753 | 60 | 355 | 0.9 | 6.1 | 0.00 | 0.00 | 0.00 | 86 | 1013.5 |
| 20260507084758 | 60 | 329 | 0.9 | 3.5 | 0.00 | 0.00 | 0.00 | 86 | 1013.4 |
| 20260507083729 | 60 | 19 | 0.9 | 3.5 | 0.00 | 0.00 | 0.00 | 86 | 1013.5 |
| 20260507082702 | 60 | 12 | 0.0 | 2.6 | 0.00 | 0.00 | 0.00 | 86 | 1013.4 |
| 20260507081655 | 60 | 342 | 0.0 | 0.0 | 0.00 | 0.00 | 0.00 | 86 | 1013.5 |
| 20260507080701 | 60 | 32 | 0.0 | 5.2 | 0.00 | 0.00 | 0.00 | 86 | 1013.2 |
| 20260507075633 | 60 | 39 | 0.9 | 5.2 | 0.00 | 0.00 | 0.00 | 85 | 1013.1 |
| 20260507074607 | 60 | 16 | 0.9 | 4.3 | 0.00 | 0.00 | 0.00 | 85 | 1013.1 |
| 20260507073618 | 60 | 38 | 0.9 | 3.5 | 0.00 | 0.00 | 0.00 | 85 | 1012.9 |
| 20260507072631 | 60 | 59 | 0.9 | 3.5 | 0.00 | 0.00 | 0.00 | 85 | 1012.7 |
| 20260507071611 | 60 | 36 | 0.0 | 2.6 | 0.00 | 0.00 | 0.00 | 85 | 1013.1 |
| 20260507070541 | 60 | 43 | 0.9 | 6.1 | 0.00 | 0.00 | 0.00 | 85 | 1013.1 |
| 20260507064439 | 61 | 48 | 0.9 | 4.3 | 0.00 | 0.00 | 0.00 | 84 | 1013.1 |
| 20260507061206 | 61 | 28 | 1.7 | 8.7 | 0.00 | 0.00 | 0.00 | 85 | 1012.2 |
| 20260507060151 | 61 | 25 | 0.9 | 7.0 | 0.00 | 0.00 | 0.00 | 85 | 1013.0 |
| 20260507055208 | 61 | 17 | 1.7 | 7.0 | 0.00 | 0.00 | 0.00 | 84 | 1012.8 |
| 20260507054233 | 61 | 25 | 1.7 | 7.0 | 0.00 | 0.00 | 0.00 | 85 | 1012.6 |
| 20260507053223 | 61 | 342 | 1.7 | 6.1 | 0.00 | 0.00 | 0.00 | 84 | 1013.0 |
| 20260507052149 | 61 | 75 | 1.7 | 5.2 | 0.00 | 0.00 | 0.00 | 84 | 1012.9 |
| 20260507051157 | 61 | 62 | 2.6 | 7.8 | 0.00 | 0.00 | 0.00 | 84 | 1012.7 |
| 20260507050217 | 61 | 24 | 2.6 | 7.8 | 0.00 | 0.00 | 0.00 | 84 | 1012.5 |
| 20260507045209 | 61 | 15 | 1.7 | 7.0 | 0.00 | 0.00 | 0.00 | 84 | 1012.5 |
| 20260507044221 | 61 | 0 | 1.7 | 10.4 | 0.00 | 0.00 | 0.00 | 84 | 1012.7 |
| 20260507043210 | 62 | 329 | 2.6 | 10.4 | 0.00 | 0.00 | 0.00 | 84 | 1012.5 |
| 20260507042148 | 62 | 15 | 3.5 | 8.7 | 0.00 | 0.00 | 0.00 | 84 | 1012.7 |
| 20260507041141 | 62 | 19 | 2.6 | 8.7 | 0.00 | 0.00 | 0.00 | 84 | 1012.7 |
| 20260507040116 | 62 | 13 | 2.6 | 8.7 | 0.00 | 0.00 | 0.00 | 84 | 1012.2 |
| 20260507035116 | 62 | 355 | 3.5 | 10.4 | 0.00 | 0.00 | 0.00 | 84 | 1012.3 |
| 20260507034044 | 62 | 11 | 3.5 | 11.3 | 0.00 | 0.00 | 0.00 | 84 | 1012.6 |
| 20260507033028 | 62 | 15 | 2.6 | 11.3 | 0.00 | 0.00 | 0.00 | 84 | 1012.2 |
| 20260507032028 | 62 | 24 | 3.5 | 10.4 | 0.00 | 0.00 | 0.00 | 84 | 1012.3 |
| 20260507031000 | 62 | 341 | 3.5 | 9.6 | 0.00 | 0.00 | 0.00 | 85 | 1012.0 |
| 20260507022550 | 62 | 355 | 2.6 | 8.7 | 0.00 | 0.00 | 0.00 | 85 | 1011.9 |
| 20260507021609 | 62 | 327 | 2.6 | 7.8 | 0.00 | 0.00 | 0.00 | 85 | 1011.6 |
| 20260507013102 | 63 | 345 | 2.6 | 8.7 | 0.00 | 0.00 | 0.00 | 83 | 1010.6 |
| 20260507010952 | 63 | 344 | 2.6 | 7.8 | 0.00 | 0.00 | 0.00 | 83 | 1010.6 |
| 20260507005918 | 63 | 355 | 4.3 | 9.6 | 0.00 | 0.00 | 0.00 | 82 | 1010.3 |
| 20260507004927 | 63 | 355 | 3.5 | 9.6 | 0.00 | 0.00 | 0.00 | 82 | 1010.4 |
| 20260507003950 | 63 | 46 | 2.6 | 9.6 | 0.00 | 0.00 | 0.00 | 83 | 1010.2 |
| 20260507002941 | 63 | 48 | 4.3 | 9.6 | 0.00 | 0.00 | 0.00 | 82 | 1009.8 |
| 20260507001920 | 63 | 344 | 4.3 | 10.4 | 0.00 | 0.00 | 0.00 | 82 | 1010.0 |
| 20260507000859 | 63 | 57 | 4.3 | 11.3 | 0.00 | 0.00 | 0.00 | 82 | 1010.0 |
| 20260506235832 | 63 | 17 | 4.3 | 12.2 | 0.00 | 0.00 | 0.00 | 81 | 1009.6 |
| 20260506234839 | 63 | 339 | 5.2 | 12.2 | 0.00 | 0.00 | 0.00 | 81 | 1009.7 |
| 20260506233840 | 64 | 12 | 4.3 | 10.4 | 0.00 | 0.00 | 0.00 | 81 | 1009.8 |
| 20260506232843 | 64 | 355 | 4.3 | 10.4 | 0.00 | 0.00 | 0.00 | 80 | 1009.5 |
| 20260506230704 | 64 | 343 | 3.5 | 8.7 | 0.00 | 0.00 | 0.00 | 80 | 1009.4 |
| 20260506223405 | 65 | 318 | 5.2 | 13.0 | 0.00 | 0.00 | 0.00 | 79 | 1009.3 |
| 20260506222403 | 65 | 328 | 4.3 | 11.3 | 0.00 | 0.00 | 0.00 | 78 | 1009.2 |
| 20260506221343 | 65 | 9 | 6.1 | 12.2 | 0.00 | 0.00 | 0.00 | 78 | 1009.0 |
| 20260506220343 | 65 | 286 | 6.1 | 12.2 | 0.00 | 0.00 | 0.00 | 78 | 1009.2 |
| 20260506215332 | 66 | 355 | 5.2 | 11.3 | 0.00 | 0.00 | 0.00 | 76 | 1009.2 |
| 20260506214334 | 67 | 305 | 5.2 | 11.3 | 0.00 | 0.00 | 0.00 | 77 | 1009.2 |
| 20260506213346 | 68 | 306 | 5.2 | 10.4 | 0.00 | 0.00 | 0.00 | 74 | 1009.0 |
| 20260506212346 | 69 | 5 | 4.3 | 11.3 | 0.00 | 0.00 | 0.00 | 74 | 1008.9 |
| 20260506211321 | 70 | 344 | 6.1 | 13.0 | 0.00 | 0.00 | 0.00 | 72 | 1008.9 |
| 20260506210320 | 72 | 355 | 5.2 | 13.0 | 0.00 | 0.00 | 0.00 | 71 | 1008.9 |
| 20260506205338 | 72 | 49 | 5.2 | 13.9 | 0.00 | 0.00 | 0.00 | 73 | 1008.9 |
| 20260506204358 | 71 | 11 | 6.1 | 13.9 | 0.00 | 0.00 | 0.00 | 75 | 1008.9 |
| 20260506203351 | 72 | 28 | 5.2 | 12.2 | 0.00 | 0.00 | 0.00 | 74 | 1009.1 |
| 20260506201237 | 73 | 355 | 5.2 | 13.0 | 0.00 | 0.00 | 0.00 | 74 | 1009.2 |
| 20260506195104 | 74 | 314 | 5.2 | 13.0 | 0.00 | 0.00 | 0.00 | 75 | 1008.9 |
| 20260506194108 | 75 | 5 | 5.2 | 13.0 | 0.00 | 0.00 | 0.00 | 73 | 1008.7 |
| 20260506193106 | 76 | 339 | 5.2 | 13.0 | 0.00 | 0.00 | 0.00 | 73 | 1008.5 |
| 20260506192034 | 78 | 355 | 5.2 | 13.0 | 0.00 | 0.00 | 0.00 | 72 | 1008.5 |
| 20260506191002 | 79 | 355 | 3.5 | 8.7 | 0.00 | 0.00 | 0.00 | 71 | 1008.4 |
| 20260506185945 | 81 | 61 | 2.6 | 7.0 | 0.00 | 0.00 | 0.00 | 71 | 1008.6 |
| 20260506184944 | 82 | 5 | 1.7 | 7.8 | 0.00 | 0.00 | 0.00 | 69 | 1008.6 |
| 20260506183914 | 81 | 37 | 1.7 | 7.8 | 0.00 | 0.00 | 0.00 | 71 | 1008.5 |
| 20260506182901 | 81 | 351 | 0.9 | 6.1 | 0.00 | 0.00 | 0.00 | 71 | 1008.3 |
| 20260506181901 | 80 | 301 | 0.9 | 6.1 | 0.00 | 0.00 | 0.00 | 72 | 1008.5 |
| 20260506180909 | 78 | 24 | 0.9 | 7.8 | 0.00 | 0.00 | 0.00 | 75 | 1008.6 |
| 20260506175927 | 77 | 30 | 1.7 | 7.8 | 0.00 | 0.00 | 0.00 | 75 | 1008.5 |